Hourly Weather Roundup
Issued by NWS Central Illinois

Home | Current Version | Previous Version | Text Only | Print | Product List | Glossary On
Versions: 1 2 3 4 5 6 7 8 9 10 11 12 13 14 15 16 17 18 19 20 21 22 23 24 25 26 27 28 29 30 31 32 33 34 35 36 37 38 39 40 41 42 43 44 45 46 47 48 49 50
000
NZUS43 KILX 201710
HWRILX

AREA WEATHER ROUNDUP
NATIONAL WEATHER SERVICE, LINCOLN IL
1200 PM CDT SUN APR 20 2014


CITY           SKY/WX    TMP DP  RH WIND       PRES   REMARKS
BLOOMINGTON    MOSUNNY   71  38  30 SW13      30.19F
CHAMPAIGN      MOSUNNY   75  37  25 S8        30.20F
DANVILLE       FAIR      71  38  30 S8        30.19F
DECATUR        SUNNY     74  41  30 SW13      30.19
FLORA          NOT AVBL
GALESBURG      MOSUNNY   73  48  41 S10       30.14F
JACKSONVILLE   SUNNY     77  43  29 S10G16    30.16F
LACON          MOSUNNY   72  42  33 SW15G21   30.15F
LAWRENCEVILLE  SUNNY     72  39  30 SW5       30.23S
LITCHFIELD     MOSUNNY   70  45  40 CALM      30.19F
$$


CITY           SKY/WX    TMP DP  RH WIND       PRES   REMARKS
LINCOLN        MOSUNNY   77  40  26 S6        30.16F
MACOMB         MOSUNNY   75  45  33 SW7       30.16F
MATTOON        SUNNY     70  44  39 S8        30.20F
MT CARMEL AP   SUNNY     73  36  25 S6        30.22F
OLNEY-NOBLE AP SUNNY     70  43  37 S6        30.22F
PARIS          SUNNY     72  39  30 SE5       30.22F
PEORIA         PTSUNNY   73  43  33 S8        30.16F
PONTIAC        MOSUNNY   75  39  27 SW13G18   30.18S
RANTOUL        MOSUNNY   73  34  23 S7        30.21F
ROBINSON       SUNNY     73  42  32 SW5       30.23F
SPRINGFIELD    SUNNY     76  41  28 S9        30.17F
TAYLORVILLE    SUNNY     72  43  35 S14G20    30.19F
$$

...REGIONAL REPORTS...


CITY           SKY/WX    TMP DP  RH WIND       PRES   REMARKS
CHICAGO O`HARE PTSUNNY   71  37  28 S13       30.17F
KANKAKEE       SUNNY     73  41  31 S10G16    30.20F
MOLINE         SUNNY     78  43  28 SW14      30.10F
MOUNT VERNON   MOSUNNY  N/A N/A N/A SW9       30.22S
PITTSFIELD     SUNNY     76  46  33 SW9       30.16S
QUINCY         SUNNY     76  49  38 SW14      30.13F
ROCKFORD       MOSUNNY   73  41  31 S13G21    30.15F
$$


CITY           SKY/WX    TMP DP  RH WIND       PRES   REMARKS
BURLINGTON     MOSUNNY   75  49  39 SW14      30.12F
CEDAR RAPIDS   MOSUNNY   75  46  35 S15       30.07F
DES MOINES     PTSUNNY   80  52  37 SW16G25   30.02F HX  80
KIRKSVILLE     SUNNY     77  49  37 SW14      30.12F
OTTUMWA        MOSUNNY   77  48  35 S14G23    30.08F
ST LOUIS       PTSUNNY   77  43  29 S12       30.17F
$$


CITY           SKY/WX    TMP DP  RH WIND       PRES   REMARKS
TERRE HAUTE    SUNNY     70  38  31 S3        30.22F
EVANSVILLE     SUNNY     72  36  26 CALM      30.22F
INDIANAPOLIS   MOSUNNY   68  37  32 S12       30.22F
LAFAYETTE      SUNNY     68  33  27 VRB6      30.21F
MADISON        MOSUNNY   68  41  37 S9        30.12S
MILWAUKEE      PTSUNNY   70  38  31 S15       30.15F
$$




USA.gov is the U.S. government's official web portal to all federal, state and local government web resources and services.